Miscellaneous Local Product
Issued by NWS Hastings, NE

Home | Current Version | Previous Version | Graphics & Text | Print | Product List | Glossary On
Versions: 1 2 3 4 5 6 7 8 9 10 11 12 13 14 15 16 17 18 19 20 21 22 23 24 25 26 27 28 29 30 31 32 33 34 35 36 37 38 39 40 41 42 43 44 45 46 47 48 49 50
627
AXUS43 KGID 281302
MISGRI

GID CWA HOURLY WEATHER ROUNDUP
NATIONAL WEATHER SERVICE HASTINGS NE
800 AM CDT WED JUN 28 2017

NOTE: "FAIR" INDICATES FEW OR NO CLOUDS BELOW 12,000 FEET WITH NO
SIGNIFICANT WEATHER AND/OR OBSTRUCTIONS TO VISIBILITY.

...SOUTH CENTRAL NEBRASKA...

CITY           SKY/WX    TMP DP  RH WIND       PRES   REMARKS
GRAND ISLAND   SUNNY     71  67  87 S10       29.74R
HASTINGS       SUNNY     73  63  70 S7        29.76R
KEARNEY        SUNNY     68  63  83 CALM      29.76R
ORD            SUNNY     66  59  78 S5        29.72S
YORK           MOSUNNY   72  68  88 S10       29.73S
AURORA         SUNNY     72  68  86 S9        29.73R
LEXINGTON      SUNNY     69  63  82 W6        29.76R
HOLDREGE       MOSUNNY   69  61  75 W8        29.76R
HEBRON         CLOUDY    75  68  78 S7        29.75R

...NEBRASKA PANHANDLE...

CITY           SKY/WX    TMP DP  RH WIND       PRES   REMARKS
CHADRON        SUNNY     61  51  70 SW5       29.83S
ALLIANCE       SUNNY     57  51  80 NW9       29.86R
SCOTTSBLUFF    SUNNY     58  48  69 NW5       29.90R
SIDNEY         SUNNY     60  47  61 NW13      29.90S

...WESTERN AND NORTH CENTRAL NEBRASKA...

CITY           SKY/WX    TMP DP  RH WIND       PRES   REMARKS
VALENTINE      SUNNY     67  52  58 NW12      29.74R
AINSWORTH      SUNNY     65  57  76 W13       29.74R
ONEILL         SUNNY     65  60  83 SW7       29.70R
BROKEN BOW     SUNNY     65  59  81 W5        29.75R
IMPERIAL       SUNNY     64  51  62 NW18G25   29.82R
NORTH PLATTE   SUNNY     63  59  87 W6        29.78R
MCCOOK         SUNNY     69  62  78 SW12      29.78R

...EASTERN NEBRASKA...

CITY           SKY/WX    TMP DP  RH WIND       PRES   REMARKS
NORFOLK        CLOUDY    68  63  84 SE3       29.70R
SO SIOUX CITY  CLOUDY    70  64  81 SW9       29.68F
TEKAMAH        CLOUDY    69  65  86 S15       29.70R
COLUMBUS       MOSUNNY   69  66  90 S6        29.72R
ALBION         CLOUDY    69  63  82 CALM      29.71S
OMAHA EPPLEY   CLOUDY    69  63  81 S17       29.72R
OFFUTT AFB     CLOUDY    68  63  84 S12       29.75R
MILLARD        CLOUDY    72  67  84 SE12G18   29.75R
LINCOLN        CLOUDY    72  68  87 S13       29.74R
NEBRASKA CITY  CLOUDY    67  67 100 S12       29.77F
BEATRICE       CLOUDY    74  69  85 S12       29.75R
FALLS CITY     CLOUDY    67  66  97 SE14G25   29.76F

...NORTHERN KANSAS...

CITY           SKY/WX    TMP DP  RH WIND       PRES   REMARKS
GOODLAND       SUNNY     62  58  86 N8        29.83S
HILL CITY      SUNNY     74  66  76 S15G23    29.75R
NORTON         SUNNY     73  57  56 S15       29.75
PHILLIPSBURG   SUNNY     75  63  64 SW15G22   29.73S
SMITH CENTER   SUNNY     73  63  68 S23G30    29.73R
HAYS           SUNNY     73  68  84 S15       29.76S
RUSSELL        SUNNY     72  67  84 S21G28    29.74F
CONCORDIA      CLOUDY    73  65  75 S15G23    29.74S
SALINA         CLOUDY    74  68  81 S23G35    29.76F THUNDER
TOPEKA         CLOUDY    74  68  81 S16G28    29.83F



USA.gov is the U.S. government's official web portal to all federal, state and local government web resources and services.